| time (UTC) | temp F | wind direction | speed knots | gust knots | rain 1hr in | rain 24hr in | rain mn in | humidity % | barometer mb |
| 20260506102631 | 67 | 107 | 1.7 | 6.1 | 0.00 | 0.09 | 0.00 | 63 | 1006.2 |
| 20260506102131 | 67 | 86 | 1.7 | 6.1 | 0.00 | 0.09 | 0.00 | 64 | 1006.3 |
| 20260506101631 | 66 | 178 | 1.7 | 4.3 | 0.00 | 0.09 | 0.00 | 64 | 1006.3 |
| 20260506101132 | 66 | 117 | 1.7 | 4.3 | 0.00 | 0.09 | 0.00 | 65 | 1006.2 |
| 20260506100632 | 66 | 129 | 1.7 | 4.3 | 0.00 | 0.09 | 0.00 | 66 | 1006.3 |
| 20260506100133 | 65 | 82 | 1.7 | 5.2 | 0.00 | 0.09 | 0.00 | 67 | 1006.2 |
| 20260506095733 | 65 | 46 | 1.7 | 6.1 | 0.00 | 0.09 | 0.00 | 67 | 1006.3 |
| 20260506095714 | 65 | 223 | 1.7 | 5.2 | 0.00 | 0.09 | 0.00 | 67 | 1006.3 |
| 20260506094632 | 65 | 89 | 2.6 | 6.1 | 0.00 | 0.09 | 0.00 | 67 | 1006.3 |
| 20260506094130 | 65 | 86 | 2.6 | 6.1 | 0.00 | 0.09 | 0.00 | 66 | 1006.3 |
| 20260506093631 | 65 | 84 | 2.6 | 6.1 | 0.00 | 0.09 | 0.00 | 66 | 1006.4 |
| 20260506093131 | 65 | 112 | 1.7 | 6.1 | 0.00 | 0.09 | 0.00 | 67 | 1006.3 |
| 20260506092631 | 65 | 89 | 1.7 | 6.1 | 0.00 | 0.09 | 0.00 | 67 | 1006.5 |
| 20260506092129 | 65 | 79 | 1.7 | 6.1 | 0.00 | 0.09 | 0.00 | 67 | 1006.4 |
| 20260506091631 | 64 | 107 | 1.7 | 6.1 | 0.00 | 0.09 | 0.00 | 68 | 1006.5 |
| 20260506091428 | 64 | 115 | 1.7 | 4.3 | 0.00 | 0.09 | 0.00 | 68 | 1006.4 |
| 20260506090631 | 64 | 254 | 1.7 | 5.2 | 0.00 | 0.09 | 0.00 | 67 | 1006.5 |
| 20260506090134 | 64 | 200 | 1.7 | 6.1 | 0.00 | 0.09 | 0.00 | 67 | 1006.6 |
| 20260506085935 | 65 | 89 | 1.7 | 6.1 | 0.00 | 0.09 | 0.00 | 68 | 1006.6 |
| 20260506085133 | 65 | 344 | 1.7 | 4.3 | 0.00 | 0.09 | 0.00 | 68 | 1006.6 |
| 20260506084630 | 65 | 84 | 1.7 | 4.3 | 0.00 | 0.09 | 0.00 | 69 | 1006.5 |
| 20260506084131 | 64 | 117 | 1.7 | 6.1 | 0.00 | 0.09 | 0.00 | 71 | 1006.7 |
| 20260506083933 | 64 | 75 | 1.7 | 6.1 | 0.00 | 0.09 | 0.00 | 71 | 1006.6 |
| 20260506083129 | 63 | 250 | 1.7 | 4.3 | 0.00 | 0.09 | 0.00 | 73 | 1006.5 |
| 20260506082933 | 62 | 84 | 1.7 | 5.2 | 0.00 | 0.09 | 0.00 | 74 | 1006.6 |
| 20260506082128 | 62 | 63 | 1.7 | 5.2 | 0.00 | 0.09 | 0.00 | 75 | 1006.8 |
| 20260506081632 | 61 | 269 | 1.7 | 5.2 | 0.00 | 0.09 | 0.00 | 76 | 1006.9 |
| 20260506081130 | 61 | 135 | 1.7 | 5.2 | 0.00 | 0.09 | 0.00 | 76 | 1006.9 |
| 20260506080631 | 60 | 67 | 1.7 | 5.2 | 0.00 | 0.09 | 0.00 | 76 | 1006.9 |
| 20260506080124 | 60 | 35 | 1.7 | 5.2 | 0.00 | 0.09 | 0.00 | 77 | 1007.0 |
| 20260506073114 | 60 | 0 | 1.7 | 5.2 | 0.00 | 0.09 | 0.00 | 78 | 1006.8 |
| 20260506072614 | 60 | 241 | 1.7 | 5.2 | 0.00 | 0.09 | 0.00 | 78 | 1006.9 |
| 20260506072114 | 60 | 135 | 1.7 | 4.3 | 0.00 | 0.09 | 0.00 | 79 | 1006.8 |
| 20260506071612 | 59 | 165 | 1.7 | 5.2 | 0.00 | 0.09 | 0.00 | 79 | 1006.9 |
| 20260506071114 | 59 | 105 | 1.7 | 5.2 | 0.00 | 0.09 | 0.00 | 80 | 1006.8 |
| 20260506070612 | 58 | 161 | 1.7 | 5.2 | 0.00 | 0.09 | 0.00 | 80 | 1006.9 |
| 20260506070111 | 58 | 68 | 1.7 | 4.3 | 0.00 | 0.09 | 0.00 | 80 | 1006.9 |
| 20260506062105 | 56 | 152 | 0.9 | 2.6 | 0.00 | 0.09 | 0.00 | 86 | 1006.7 |
| 20260506061605 | 55 | 89 | 0.9 | 1.7 | 0.00 | 0.09 | 0.00 | 86 | 1006.7 |
| 20260506061103 | 55 | 269 | 0.9 | 1.7 | 0.00 | 0.09 | 0.00 | 86 | 1006.8 |
| 20260506060602 | 55 | 63 | 1.7 | 2.6 | 0.00 | 0.09 | 0.00 | 86 | 1006.9 |
| 20260506060405 | 54 | 58 | 1.7 | 3.5 | 0.00 | 0.09 | 0.00 | 87 | 1006.9 |
| 20260506051048 | 53 | 124 | 0.9 | 1.7 | 0.00 | 0.09 | 0.00 | 88 | 1007.1 |
| 20260506050548 | 52 | 28 | 0.0 | 1.7 | 0.00 | 0.09 | 0.00 | 87 | 1007.2 |
| 20260506050342 | 52 | 105 | 0.0 | 2.6 | 0.00 | 0.09 | 0.00 | 87 | 1007.2 |
| 20260506045043 | 52 | 89 | 0.9 | 1.7 | 0.00 | 0.09 | 0.00 | 87 | 1007.2 |
| 20260506044542 | 52 | 46 | 0.0 | 1.7 | 0.00 | 0.09 | 0.00 | 87 | 1007.1 |
| 20260506044043 | 52 | 269 | 0.9 | 1.7 | 0.00 | 0.09 | 0.00 | 87 | 1007.1 |
| 20260506043542 | 52 | 258 | 0.9 | 1.7 | 0.00 | 0.09 | 0.00 | 87 | 1007.0 |
| 20260506043042 | 52 | 246 | 0.9 | 2.6 | 0.00 | 0.09 | 0.00 | 87 | 1007.1 |
| 20260506042540 | 52 | 269 | 0.9 | 3.5 | 0.00 | 0.09 | 0.00 | 87 | 1007.1 |
| 20260506042334 | 53 | 314 | 0.9 | 6.1 | 0.00 | 0.09 | 0.00 | 87 | 1007.2 |
| 20260506041538 | 53 | 178 | 1.7 | 6.1 | 0.00 | 0.09 | 0.00 | 87 | 1007.2 |
| 20260506041332 | 53 | 89 | 1.7 | 6.1 | 0.00 | 0.09 | 0.00 | 87 | 1007.3 |
| 20260506040539 | 53 | 262 | 0.9 | 4.3 | 0.00 | 0.09 | 0.00 | 87 | 1007.3 |
| 20260506040040 | 53 | 84 | 0.9 | 3.5 | 0.00 | 0.09 | 0.00 | 87 | 1007.2 |
| 20260506035828 | 53 | 223 | 0.9 | 4.3 | 0.00 | 0.09 | 0.00 | 87 | 1007.2 |
| 20260506035027 | 53 | 60 | 1.7 | 4.3 | 0.00 | 0.09 | 0.00 | 87 | 1007.1 |
| 20260506034826 | 53 | 314 | 1.7 | 6.1 | 0.00 | 0.09 | 0.00 | 87 | 1007.1 |
| 20260506034325 | 53 | 89 | 1.7 | 6.1 | 0.00 | 0.09 | 0.00 | 87 | 1007.2 |
| 20260506033527 | 53 | 46 | 1.7 | 4.3 | 0.00 | 0.09 | 0.00 | 87 | 1007.3 |
| 20260506033029 | 53 | 98 | 0.9 | 2.6 | 0.00 | 0.09 | 0.00 | 87 | 1007.2 |
| 20260506032523 | 53 | 324 | 0.9 | 2.6 | 0.00 | 0.09 | 0.00 | 87 | 1007.1 |
| 20260506032021 | 53 | 331 | 0.9 | 4.3 | 0.00 | 0.09 | 0.00 | 87 | 1007.1 |
| 20260506031522 | 53 | 241 | 0.9 | 4.3 | 0.00 | 0.09 | 0.00 | 87 | 1007.0 |
| 20260506031020 | 53 | 46 | 0.9 | 3.5 | 0.00 | 0.09 | 0.00 | 87 | 1006.9 |
| 20260506030520 | 53 | 46 | 0.9 | 3.5 | 0.00 | 0.09 | 0.00 | 87 | 1006.9 |
| 20260506030021 | 53 | 241 | 0.9 | 3.5 | 0.00 | 0.09 | 0.00 | 87 | 1007.0 |
| 20260506025518 | 53 | 296 | 0.9 | 3.5 | 0.00 | 0.09 | 0.00 | 87 | 1007.1 |
| 20260506025017 | 53 | 269 | 0.9 | 3.5 | 0.00 | 0.09 | 0.00 | 87 | 1007.1 |
| 20260506024526 | 54 | 254 | 0.9 | 3.5 | 0.00 | 0.09 | 0.00 | 87 | 1007.1 |
| 20260506024015 | 54 | 269 | 1.7 | 3.5 | 0.00 | 0.09 | 0.00 | 87 | 1007.1 |
| 20260506023511 | 54 | 1 | 1.7 | 3.5 | 0.00 | 0.09 | 0.00 | 87 | 1007.1 |
| 20260506023011 | 54 | 231 | 1.7 | 3.5 | 0.00 | 0.09 | 0.00 | 87 | 1007.1 |
| 20260506022504 | 54 | 227 | 1.7 | 6.1 | 0.00 | 0.09 | 0.00 | 87 | 1007.2 |
| 20260506022003 | 54 | 296 | 1.7 | 6.1 | 0.00 | 0.09 | 0.00 | 87 | 1007.2 |
| 20260506021505 | 54 | 239 | 1.7 | 5.2 | 0.00 | 0.09 | 0.00 | 88 | 1007.2 |
| 20260506021005 | 54 | 178 | 1.7 | 5.2 | 0.00 | 0.09 | 0.00 | 88 | 1007.2 |
| 20260506020506 | 54 | 260 | 1.7 | 5.2 | 0.00 | 0.09 | 0.00 | 88 | 1007.3 |
| 20260506020005 | 54 | 178 | 1.7 | 6.1 | 0.00 | 0.09 | 0.00 | 88 | 1007.3 |
| 20260506015802 | 54 | 76 | 1.7 | 6.1 | 0.00 | 0.09 | 0.00 | 88 | 1007.4 |
| 20260506015003 | 54 | 269 | 0.9 | 2.6 | 0.00 | 0.09 | 0.00 | 88 | 1007.3 |
| 20260506014505 | 54 | 223 | 0.9 | 3.5 | 0.00 | 0.09 | 0.00 | 88 | 1007.3 |
| 20260506014003 | 54 | 39 | 0.9 | 4.3 | 0.00 | 0.09 | 0.00 | 88 | 1007.4 |
| 20260506013907 | 54 | 82 | 0.0 | 2.6 | 0.00 | 0.09 | 0.00 | 88 | 1007.4 |
| 20260506013545 | 54 | 216 | 0.9 | 4.3 | 0.00 | 0.09 | 0.00 | 88 | 1007.3 |
| 20260506012503 | 54 | 145 | 0.9 | 1.7 | 0.00 | 0.09 | 0.00 | 88 | 1007.3 |
| 20260506012007 | 54 | 113 | 0.0 | 1.7 | 0.00 | 0.09 | 0.00 | 88 | 1007.4 |
| 20260506011502 | 55 | 108 | 0.9 | 1.7 | 0.00 | 0.09 | 0.00 | 87 | 1007.3 |
| 20260506011414 | 55 | 46 | 0.0 | 2.6 | 0.00 | 0.09 | 0.00 | 87 | 1007.4 |
| 20260506011054 | 55 | 269 | 0.9 | 1.7 | 0.00 | 0.09 | 0.00 | 87 | 1007.5 |
| 20260506005958 | 55 | 89 | 0.9 | 2.6 | 0.00 | 0.09 | 0.00 | 87 | 1007.5 |
| 20260506005458 | 55 | 76 | 0.9 | 2.6 | 0.00 | 0.09 | 0.00 | 87 | 1007.5 |
| 20260506004957 | 55 | 108 | 0.9 | 2.6 | 0.00 | 0.09 | 0.00 | 87 | 1007.5 |
| 20260506004459 | 55 | 89 | 0.9 | 2.6 | 0.00 | 0.09 | 0.00 | 87 | 1007.5 |
| 20260506003958 | 55 | 89 | 0.9 | 2.6 | 0.00 | 0.09 | 0.00 | 87 | 1007.5 |
| 20260506003458 | 55 | 72 | 0.9 | 1.7 | 0.00 | 0.09 | 0.00 | 87 | 1007.6 |
| 20260506003250 | 55 | 178 | 0.9 | 1.7 | 0.00 | 0.09 | 0.00 | 88 | 1007.6 |
| 20260506002457 | 55 | 89 | 0.9 | 2.6 | 0.00 | 0.09 | 0.00 | 88 | 1007.6 |
| 20260506001957 | 55 | 124 | 0.9 | 2.6 | 0.00 | 0.09 | 0.00 | 88 | 1007.7 |
| 20260506001455 | 55 | 89 | 0.9 | 2.6 | 0.00 | 0.09 | 0.00 | 88 | 1007.7 |
| 20260506000955 | 55 | 269 | 0.9 | 1.7 | 0.00 | 0.09 | 0.00 | 88 | 1007.8 |
| 20260506000454 | 55 | 269 | 0.0 | 1.7 | 0.00 | 0.09 | 0.00 | 88 | 1007.8 |
| 20260506000247 | 55 | 135 | 0.0 | 2.6 | 0.00 | 0.09 | 0.00 | 88 | 1007.9 |
| 20260505235451 | 55 | 314 | 0.9 | 2.6 | 0.00 | 0.09 | 0.00 | 88 | 1007.9 |
| 20260505234951 | 55 | 223 | 0.0 | 2.6 | 0.00 | 0.09 | 0.00 | 87 | 1007.9 |
| 20260505234743 | 55 | 257 | 0.0 | 2.6 | 0.00 | 0.09 | 0.00 | 87 | 1008.0 |
| 20260505233949 | 55 | 314 | 0.0 | 1.7 | 0.00 | 0.09 | 0.00 | 87 | 1008.0 |
| 20260505233754 | 55 | 135 | 0.0 | 1.7 | 0.00 | 0.09 | 0.00 | 87 | 1008.1 |
| 20260505232950 | 55 | 89 | 0.0 | 1.7 | 0.00 | 0.09 | 0.00 | 87 | 1008.0 |
| 20260505232757 | 55 | 303 | 0.9 | 1.7 | 0.00 | 0.09 | 0.00 | 87 | 1008.0 |
| 20260505231942 | 56 | 258 | 0.9 | 1.7 | 0.00 | 0.09 | 0.00 | 87 | 1008.0 |
| 20260505231747 | 56 | 269 | 0.0 | 1.7 | 0.00 | 0.09 | 0.00 | 87 | 1007.9 |
| 20260505230941 | 56 | 178 | 0.9 | 1.7 | 0.00 | 0.09 | 0.00 | 87 | 1007.8 |
| 20260505230437 | 56 | 314 | 0.0 | 1.7 | 0.00 | 0.09 | 0.00 | 87 | 1007.9 |
| 20260505225935 | 56 | 303 | 0.0 | 2.6 | 0.00 | 0.09 | 0.00 | 87 | 1007.7 |
| 20260505225434 | 56 | 206 | 0.9 | 2.6 | 0.00 | 0.09 | 0.00 | 87 | 1007.7 |
| 20260505224934 | 56 | 253 | 0.9 | 2.6 | 0.00 | 0.09 | 0.00 | 87 | 1007.7 |
| 20260505224433 | 56 | 269 | 0.0 | 1.7 | 0.00 | 0.09 | 0.00 | 87 | 1007.9 |
| 20260505223931 | 56 | 269 | 0.0 | 1.7 | 0.00 | 0.09 | 0.00 | 87 | 1007.9 |
| 20260505223431 | 56 | 46 | 0.0 | 1.7 | 0.00 | 0.09 | 0.00 | 87 | 1007.8 |
| 20260505222931 | 56 | 269 | 0.9 | 2.6 | 0.00 | 0.09 | 0.00 | 87 | 1007.9 |
| 20260505222432 | 56 | 46 | 0.9 | 2.6 | 0.00 | 0.09 | 0.00 | 87 | 1007.9 |
| 20260505221933 | 56 | 178 | 0.9 | 2.6 | 0.00 | 0.09 | 0.00 | 87 | 1007.9 |
| 20260505221431 | 56 | 258 | 0.0 | 1.7 | 0.00 | 0.09 | 0.00 | 87 | 1007.9 |
| 20260505220930 | 56 | 161 | 0.9 | 1.7 | 0.00 | 0.09 | 0.00 | 87 | 1008.0 |
| 20260505220748 | 56 | 241 | 0.9 | 2.6 | 0.00 | 0.09 | 0.00 | 87 | 1008.0 |
| 20260505220116 | 56 | 89 | 0.9 | 2.6 | 0.00 | 0.09 | 0.09 | 87 | 1007.9 |
| 20260505220030 | 56 | 213 | 0.9 | 2.6 | 0.00 | 0.09 | 0.09 | 87 | 1008.0 |
| 20260505214930 | 56 | 269 | 0.9 | 2.6 | 0.00 | 0.09 | 0.09 | 87 | 1007.9 |
| 20260505214735 | 56 | 259 | 0.9 | 4.3 | 0.00 | 0.09 | 0.09 | 87 | 1008.0 |
| 20260505213932 | 56 | 241 | 1.7 | 4.3 | 0.00 | 0.09 | 0.09 | 87 | 1007.8 |
| 20260505213431 | 56 | 165 | 0.9 | 4.3 | 0.00 | 0.09 | 0.09 | 87 | 1007.8 |
| 20260505212932 | 56 | 178 | 0.9 | 3.5 | 0.00 | 0.09 | 0.09 | 87 | 1007.9 |
| 20260505212440 | 57 | 245 | 0.9 | 4.3 | 0.00 | 0.09 | 0.09 | 87 | 1007.8 |
| 20260505211930 | 57 | 46 | 0.9 | 4.3 | 0.00 | 0.09 | 0.09 | 87 | 1007.8 |
| 20260505211430 | 57 | 331 | 0.9 | 1.7 | 0.00 | 0.09 | 0.09 | 87 | 1007.7 |
| 20260505210932 | 57 | 257 | 0.9 | 3.5 | 0.00 | 0.09 | 0.09 | 87 | 1007.5 |
| 20260505210430 | 57 | 246 | 0.9 | 3.5 | 0.00 | 0.09 | 0.09 | 87 | 1007.5 |
| 20260505210245 | 57 | 269 | 0.9 | 2.6 | 0.00 | 0.09 | 0.09 | 87 | 1007.4 |
| 20260505205430 | 57 | 314 | 0.9 | 3.5 | 0.00 | 0.09 | 0.09 | 87 | 1007.4 |
| 20260505204936 | 57 | 246 | 0.9 | 3.5 | 0.00 | 0.09 | 0.09 | 87 | 1007.3 |
| 20260505204430 | 57 | 296 | 0.9 | 3.5 | 0.00 | 0.09 | 0.09 | 87 | 1007.3 |
| 20260505203931 | 57 | 252 | 0.9 | 3.5 | 0.00 | 0.09 | 0.09 | 86 | 1007.3 |
| 20260505203430 | 57 | 269 | 1.7 | 3.5 | 0.00 | 0.09 | 0.09 | 86 | 1007.3 |
| 20260505202927 | 57 | 255 | 1.7 | 3.5 | 0.00 | 0.09 | 0.09 | 86 | 1007.2 |
| 20260505202438 | 58 | 248 | 1.7 | 4.3 | 0.00 | 0.09 | 0.09 | 86 | 1007.1 |
| 20260505201928 | 58 | 269 | 1.7 | 4.3 | 0.00 | 0.09 | 0.09 | 86 | 1007.0 |
| 20260505201426 | 58 | 269 | 1.7 | 4.3 | 0.00 | 0.09 | 0.09 | 86 | 1007.0 |
| 20260505200924 | 58 | 223 | 1.7 | 4.3 | 0.00 | 0.09 | 0.09 | 86 | 1007.0 |
| 20260505200425 | 58 | 288 | 1.7 | 3.5 | 0.00 | 0.09 | 0.09 | 86 | 1006.8 |
| 20260505195926 | 58 | 223 | 1.7 | 5.2 | 0.00 | 0.09 | 0.09 | 86 | 1006.7 |
| 20260505195527 | 58 | 220 | 1.7 | 5.2 | 0.00 | 0.09 | 0.09 | 86 | 1006.3 |
| 20260505195507 | 58 | 254 | 1.7 | 5.2 | 0.00 | 0.09 | 0.09 | 86 | 1006.4 |
| 20260505194423 | 58 | 253 | 1.7 | 4.3 | 0.00 | 0.09 | 0.09 | 86 | 1006.4 |
| 20260505193924 | 58 | 264 | 1.7 | 4.3 | 0.00 | 0.09 | 0.09 | 86 | 1006.3 |
| 20260505193424 | 58 | 314 | 0.9 | 3.5 | 0.00 | 0.09 | 0.09 | 86 | 1006.0 |
| 20260505192921 | 58 | 257 | 0.9 | 3.5 | 0.00 | 0.09 | 0.09 | 86 | 1006.2 |
| 20260505192420 | 58 | 279 | 0.9 | 2.6 | 0.00 | 0.09 | 0.09 | 85 | 1006.0 |
| 20260505191921 | 58 | 269 | 0.9 | 3.5 | 0.00 | 0.09 | 0.09 | 85 | 1006.0 |
| 20260505191416 | 58 | 283 | 1.7 | 3.5 | 0.00 | 0.09 | 0.09 | 85 | 1005.9 |
| 20260505191221 | 58 | 286 | 1.7 | 5.2 | 0.00 | 0.09 | 0.09 | 85 | 1005.9 |
| 20260505190416 | 58 | 269 | 1.7 | 5.2 | 0.00 | 0.09 | 0.09 | 85 | 1005.9 |
| 20260505185915 | 58 | 260 | 1.7 | 5.2 | 0.00 | 0.09 | 0.09 | 85 | 1005.8 |
| 20260505185415 | 58 | 255 | 0.9 | 4.3 | 0.00 | 0.09 | 0.09 | 85 | 1005.7 |
| 20260505184914 | 58 | 262 | 0.9 | 4.3 | 0.00 | 0.09 | 0.09 | 85 | 1005.7 |
| 20260505184416 | 59 | 241 | 0.9 | 3.5 | 0.00 | 0.09 | 0.09 | 85 | 1005.6 |
| 20260505183913 | 59 | 269 | 0.0 | 1.7 | 0.00 | 0.09 | 0.09 | 85 | 1005.5 |
| 20260505183718 | 59 | 46 | 0.0 | 1.7 | 0.00 | 0.09 | 0.09 | 86 | 1005.5 |
| 20260505183037 | 59 | 89 | 0.9 | 3.5 | 0.01 | 0.09 | 0.09 | 86 | 1005.5 |
| 20260505183006 | 59 | 46 | 0.0 | 2.6 | 0.01 | 0.09 | 0.09 | 85 | 1005.5 |
| 20260505181912 | 59 | 314 | 0.9 | 3.5 | 0.01 | 0.09 | 0.09 | 86 | 1005.5 |
| 20260505181722 | 59 | 250 | 1.7 | 3.5 | 0.02 | 0.09 | 0.09 | 86 | 1005.5 |
| 20260505180913 | 59 | 269 | 1.7 | 3.5 | 0.02 | 0.09 | 0.09 | 86 | 1005.5 |
| 20260505180415 | 59 | 95 | 0.9 | 3.5 | 0.02 | 0.09 | 0.09 | 86 | 1005.4 |
| 20260505175911 | 59 | 46 | 0.9 | 3.5 | 0.03 | 0.09 | 0.09 | 86 | 1005.3 |
| 20260505175406 | 59 | 269 | 1.7 | 3.5 | 0.03 | 0.09 | 0.09 | 86 | 1005.2 |
| 20260505174910 | 59 | 283 | 1.7 | 4.3 | 0.03 | 0.09 | 0.09 | 86 | 1005.2 |
| 20260505174404 | 59 | 314 | 1.7 | 4.3 | 0.03 | 0.09 | 0.09 | 85 | 1005.1 |
| 20260505173905 | 59 | 269 | 1.7 | 5.2 | 0.03 | 0.09 | 0.09 | 85 | 1005.2 |
| 20260505173403 | 59 | 246 | 1.7 | 6.1 | 0.03 | 0.09 | 0.09 | 85 | 1005.3 |
| 20260505172902 | 60 | 269 | 1.7 | 6.1 | 0.03 | 0.09 | 0.09 | 84 | 1005.3 |
| 20260505172404 | 60 | 276 | 1.7 | 4.3 | 0.04 | 0.09 | 0.09 | 84 | 1005.3 |
| 20260505171902 | 60 | 250 | 0.9 | 2.6 | 0.07 | 0.09 | 0.09 | 83 | 1005.3 |
| 20260505171403 | 60 | 68 | 0.9 | 1.7 | 0.06 | 0.08 | 0.08 | 83 | 1005.4 |
| 20260505170902 | 60 | 89 | 0.9 | 3.5 | 0.06 | 0.07 | 0.07 | 82 | 1005.4 |
| 20260505170402 | 60 | 269 | 1.7 | 4.3 | 0.06 | 0.07 | 0.07 | 82 | 1005.3 |
| 20260505165901 | 60 | 1 | 2.6 | 7.8 | 0.05 | 0.06 | 0.06 | 82 | 1005.0 |
| 20260505165400 | 60 | 223 | 2.6 | 7.8 | 0.05 | 0.06 | 0.06 | 82 | 1005.0 |
| 20260505164859 | 61 | 257 | 1.7 | 6.1 | 0.06 | 0.06 | 0.06 | 81 | 1005.1 |
| 20260505164356 | 61 | 274 | 1.7 | 7.0 | 0.06 | 0.06 | 0.06 | 82 | 1004.9 |
| 20260505163852 | 61 | 89 | 2.6 | 7.0 | 0.06 | 0.06 | 0.06 | 81 | 1005.0 |
| 20260505163354 | 62 | 286 | 2.6 | 6.1 | 0.06 | 0.06 | 0.06 | 79 | 1005.1 |
| 20260505162852 | 63 | 272 | 1.7 | 6.1 | 0.06 | 0.06 | 0.06 | 77 | 1005.5 |
| 20260505162351 | 64 | 269 | 2.6 | 7.8 | 0.05 | 0.05 | 0.04 | 75 | 1005.8 |
| 20260505161847 | 64 | 269 | 2.6 | 7.8 | 0.02 | 0.02 | 0.02 | 72 | 1005.5 |
| 20260505161345 | 64 | 257 | 2.6 | 7.8 | 0.02 | 0.02 | 0.02 | 71 | 1005.3 |
| 20260505160841 | 64 | 302 | 2.6 | 7.8 | 0.02 | 0.02 | 0.02 | 70 | 1005.2 |
| 20260505160332 | 65 | 277 | 3.5 | 13.0 | 0.02 | 0.02 | 0.02 | 69 | 1005.1 |
| 20260505153308 | 75 | 324 | 1.7 | 17.4 | 0.00 | 0.00 | 0.00 | 45 | 1004.1 |
| 20260505152920 | 76 | 46 | 0.9 | 2.6 | 0.00 | 0.00 | 0.00 | 37 | 1003.9 |
| 20260505152853 | 76 | 229 | 1.7 | 3.5 | 0.00 | 0.00 | 0.00 | 43 | 1003.9 |
| 20260505151807 | 77 | 117 | 0.9 | 2.6 | 0.00 | 0.00 | 0.00 | 38 | 1003.9 |
| 20260505151308 | 77 | 257 | 0.9 | 2.6 | 0.00 | 0.00 | 0.00 | 36 | 1003.9 |
| 20260505150807 | 77 | 277 | 0.9 | 2.6 | 0.00 | 0.00 | 0.00 | 36 | 1003.8 |
| 20260505150304 | 77 | 223 | 0.0 | 1.7 | 0.00 | 0.00 | 0.00 | 38 | 1003.9 |
| 20260505140251 | 80 | 241 | 1.7 | 4.3 | 0.00 | 0.00 | 0.00 | 34 | 1004.3 |
| 20260505130249 | 80 | 135 | 1.7 | 3.5 | 0.00 | 0.00 | 0.00 | 31 | 1004.9 |
| 20260505130117 | 80 | 269 | 1.7 | 5.2 | 0.00 | 0.00 | 0.00 | 31 | 1005.0 |
| 20260505124750 | 80 | 1 | 2.6 | 5.2 | 0.00 | 0.00 | 0.00 | 31 | 1005.1 |
| 20260505124248 | 80 | 66 | 1.7 | 7.0 | 0.00 | 0.00 | 0.00 | 31 | 1005.1 |
| 20260505123756 | 81 | 124 | 1.7 | 7.0 | 0.00 | 0.00 | 0.00 | 31 | 1005.2 |
| 20260505123249 | 81 | 28 | 2.6 | 7.0 | 0.00 | 0.00 | 0.00 | 31 | 1005.2 |
| 20260505122747 | 81 | 135 | 2.6 | 7.0 | 0.00 | 0.00 | 0.00 | 31 | 1005.2 |
| 20260505122550 | 81 | 127 | 1.7 | 7.0 | 0.00 | 0.00 | 0.00 | 33 | 1005.3 |
| 20260505121749 | 81 | 63 | 1.7 | 7.0 | 0.00 | 0.00 | 0.00 | 34 | 1005.3 |
| 20260505121246 | 80 | 39 | 1.7 | 4.3 | 0.00 | 0.00 | 0.00 | 33 | 1005.4 |
| 20260505120744 | 80 | 269 | 1.7 | 5.2 | 0.00 | 0.00 | 0.00 | 34 | 1005.4 |
| 20260505120246 | 80 | 234 | 2.6 | 6.1 | 0.00 | 0.00 | 0.00 | 34 | 1005.4 |
| 20260505120103 | 80 | 187 | 2.6 | 6.1 | 0.00 | 0.00 | 0.00 | 34 | 1005.5 |
| 20260505115246 | 80 | 232 | 1.7 | 5.2 | 0.00 | 0.00 | 0.00 | 33 | 1005.5 |
| 20260505115041 | 80 | 231 | 1.7 | 3.5 | 0.00 | 0.00 | 0.00 | 34 | 1005.5 |
| 20260505114243 | 80 | 234 | 1.7 | 6.1 | 0.00 | 0.00 | 0.00 | 36 | 1005.5 |
| 20260505113743 | 80 | 314 | 2.6 | 7.0 | 0.00 | 0.00 | 0.00 | 34 | 1005.5 |
| 20260505113243 | 80 | 120 | 3.5 | 7.0 | 0.00 | 0.00 | 0.00 | 34 | 1005.6 |
| 20260505112745 | 80 | 127 | 2.6 | 7.0 | 0.00 | 0.00 | 0.00 | 33 | 1005.6 |
| 20260505112243 | 81 | 63 | 1.7 | 7.0 | 0.00 | 0.00 | 0.00 | 33 | 1005.7 |
| 20260505111741 | 80 | 142 | 1.7 | 7.0 | 0.00 | 0.00 | 0.00 | 37 | 1005.7 |
| 20260505111241 | 80 | 89 | 1.7 | 7.0 | 0.00 | 0.00 | 0.00 | 36 | 1005.8 |
| 20260505110741 | 80 | 234 | 0.9 | 3.5 | 0.00 | 0.00 | 0.00 | 36 | 1005.8 |
| 20260505110241 | 80 | 269 | 0.9 | 3.5 | 0.00 | 0.00 | 0.00 | 37 | 1005.8 |